Weather in Pardubice

Czech Republic     50°01′55″N   15°45′56″E
temp.,
°C
wind,
m/s
gust,
m/s
humid.,
%
clouds,
%
prec.,
mm/h
press.,
hPa
HPBL,
m
15 may, sat
sat1523:00+8ssw229032 0.0 101016
02:00+7s11915 0.0 101012
05:00+6s1192100 0.0 101011
08:00+11ssw1280100 0.0 1010236
11:00+15w2368100 0.4 1009936
14:00+14wsw4476100 2.4 1009653
17:00+13nw128198 0.3 1008308
20:00+10ese4594100 0.8 1007125
16 may, sun
sun1623:00+8sse11945 0.1 100711
02:00+7wsw229597 0.4 100812
05:00+7ssw3395100 0.0 100851
08:00+10wsw1387100 1.1 1009164
11:00+12wsw357693 0.4 10081024
14:00+14w44646 0.9 10071072
17:00+15wsw347031 0.9 1005891
20:00+12se117944 1.4 100510
17 may, mon
mon1723:00+10ssw488799 0.1 1006243
02:00+9sw3790100 0.3 1006199
05:00+8sw3692100 0.0 1007143
08:00+11wsw388779 0.1 1007691
11:00+13w687294 0.7 10071317
14:00+14w7873100 2.1 10081370
17:00+12w69836 1.8 1008837
20:00+10w488710 2.4 1009224
18 may, tue
tue1823:00+7sw410925 0.2 1010233
02:00+6sw411935 0.2 1011270
05:00+5sw399510 0.0 1011211
08:00+9wsw4886100 0.0 1011955
11:00+11w5883100 0.4 1012985
14:00+12wsw7980100 1.2 10121133
17:00+13w687594 0.4 10121178
20:00+10w5118761 1.1 1014609
19 may, wed
wed1923:00+8wsw61290100 0.1 1016496
02:00+8wsw51088100 0.1 1016528
05:00+8w41090100 0.0 1016599
08:00+8wnw5990100 0.3 1017927
11:00+11wnw5880100 0.8 10181203
14:00+13nw576143 1.6 10171753
17:00+12w6877100 0.9 1017832
20:00+9w4108771 1.8 1018321